Back to catalog

CZ-6A DEB

AlivePO
NORAD 61117·DEBRIS·🇨🇳 China

Launched Aug 6, 2024 from Taiyuan Satellite Launch Center

Loading…

Next Passes (next 24 hours)

TLE

FreshSource: Space-Track

Epoch: Sep 14, 2026, 11:24 UTC

1 61117U 24140PK  26257.47544899  .00009671  00000-0  10107-2 0  9993
2 61117  89.0559 262.8685 0071966 227.3788 132.1358 14.87663699110371

Track CZ-6A DEB in real time with AllMySat

Download on the App Store